Regional Weather Roundup
Issued by NWS Charleston, WV

Home | Current Version | Previous Version | Text Only | Print | Product List | Glossary On
Versions: 1 2 3 4 5 6 7 8 9 10 11 12 13 14 15 16 17 18 19 20 21 22 23 24 25 26 27 28 29 30 31 32 33 34 35 36 37 38 39 40 41 42 43 44 45 46 47 48 49 50
000
ASUS41 KRLX 292010
RWRRLX
West Virginia Regional Weather Roundup
National Weather Service Charleston WV
400 PM EDT WED JUL 29 2015

Note: "fair" indicates few or no clouds below 12,000 feet with no
significant weather and/or obstructions to visibility.

WVZ003-292100-
Northern Panhandle of West Virginia

CITY           SKY/WX    TMP DP  RH WIND       PRES   REMARKS
WHEELING       MOSUNNY   91  68  46 VRB6      29.96F
$$

WVZ009-292100-
Northwest West Virginia

CITY           SKY/WX    TMP DP  RH WIND       PRES   REMARKS
PARKERSBURG    PTSUNNY   91  71  51 SW7       29.97F HX  97
$$

WVZ006-292100-
Western West Virginia

CITY           SKY/WX    TMP DP  RH WIND       PRES   REMARKS
HUNTINGTON     PTSUNNY   89  71  55 W3        29.95F
$$

WVZ015-292100-
West Central West Virginia

CITY           SKY/WX    TMP DP  RH WIND       PRES   REMARKS
CHARLESTON     PTSUNNY   87  72  60 SE5       29.96F
$$

WVZ022-031-292100-
North Central West Virginia

CITY           SKY/WX    TMP DP  RH WIND       PRES   REMARKS
CLARKSBURG     PTSUNNY   89  71  55 W7        29.97F
MORGANTOWN     PTSUNNY   93  68  43 W7        29.98F HX  97
$$

WVZ025-035-042-045-292100-
Southern West Virginia

CITY           SKY/WX    TMP DP  RH WIND       PRES   REMARKS
BECKLEY        CLOUDY    77  68  73 SE7       30.09F
LOGAN          PTSUNNY   84  72  65 CALM      29.99F
BLUEFIELD      MOSUNNY   84  67  56 S5        30.10F
LEWISBURG      CLOUDY    79  65  62 S3        30.08F
$$

WVZ047-292100-
Northern Mountains of West Virginia

CITY           SKY/WX    TMP DP  RH WIND       PRES   REMARKS
ELKINS         MOSUNNY   87  68  52 VRB6      30.03F
$$

WVZ052-292100-
Eastern Panhandle of West Virginia

CITY           SKY/WX    TMP DP  RH WIND       PRES   REMARKS
MARTINSBURG    PTSUNNY   88  72  58 VRB7      29.97F
PETERSBURG     PTSUNNY  N/A N/A N/A CALM      29.98F
$$


USA.gov is the U.S. government's official web portal to all federal, state and local government web resources and services.